Weather in Ozerny

Russia / Orenburg Oblast     51°06′14″N   60°54′13″E
temp.,
°C
wind,
m/s
gust,
m/s
humid.,
%
clouds,
%
prec.,
mm/h
press.,
hPa
HPBL,
m
29 july, thu
thu2923:00+18n610568 0.0 1010221
02:00+15ne511670 0.0 1012293
05:00+14ne49720 0.0 1012193
08:00+17ne68570 0.0 1013480
11:00+21ne44380 0.0 10131142
14:00+23n44310 0.0 10132080
17:00+24n34280 0.0 10122219
20:00+22n33340 0.0 101352
30 july, fri
fri3023:00+17ene22420 0.0 101412
02:00+16sse334293 0.0 101420
05:00+16ssw4542100 0.0 101567
08:00+20sw4738100 0.0 1015277
11:00+25sw662864 0.0 10151658
14:00+25wsw692854 0.0 10141687
17:00+26ssw382863 0.0 10121080
20:00+24sw473882 0.1 1011138
31 july, sat
sat3123:00+22ssw5113885 0.1 1011176
02:00+19wsw5125728 0.4 1011186
05:00+21wsw494497 0.5 1011163
08:00+24wnw464057 0.0 1011210
11:00+30wnw463388 0.0 10111302
14:00+33wnw6828100 0.0 10103441
17:00+32w572864 0.0 10102324
20:00+28n58407 0.0 1011178
1 august, sun
sun123:00+23e4661100 0.3 1012101
02:00+22se33655 0.0 101229
05:00+22ssw45575 0.0 101257
08:00+26w58415 0.0 1012268
11:00+33wsw58205 0.0 10112295
14:00+35w79165 0.0 10104075
17:00+35wnw9101399 0.0 10093862
20:00+30wnw611260 0.0 1010233
2 august, mon
mon223:00+24nne4654100 0.0 1011106
02:00+22ene336211 0.0 101232
05:00+21ne336685 0.0 101236
08:00+25ne3356100 0.0 1013269
11:00+29ene2235100 0.0 10131237
14:00+31nnw122859 0.0 10132594
17:00+32ne22254 0.0 10122905
20:00+29ene453264 0.0 101293